Weather History for KABI - April, 2013

Change the Weather History Date:

Saturday, April 6, 2013

  Actual Average Record
Temperature  
Mean Temperature 71 °F 62 °F  
Max Temperature 85 °F 75 °F 96 °F (2000)
Min Temperature 56 °F 49 °F 29 °F (1994)
Degree Days  
Heating Degree Days 0 5  
Month to date heating degree days 61 34  
Since 1 July heating degree days 2157 2465  
Cooling Degree Days 6 2  
Month to date cooling degree days 9 12  
Year to date cooling degree days 55 46  
Growing Degree Days 20 (Base 50)    
Moisture  
Dew Point 46 °F    
Average Humidity 45    
Maximum Humidity 66    
Minimum Humidity 24    
Precipitation  
Precipitation 0.00 in 0.05 in 1.07 in (1942)
Month to date precipitation 0.31 0.26  
Year to date precipitation 2.81 4.38  
Sea Level Pressure  
Sea Level Pressure 29.79 in    
Wind  
Wind Speed 18 mph (South)    
Max Wind Speed 33 mph    
Max Gust Speed 46 mph    
Visibility 10 miles    
Events      
T = Trace of Precipitation, MM = Missing Value Source: NWS Daily Summary

Daily Weather History Graph

Daily Weather History Graph

Search for Another Location

Airport or City:

Trip Planner

Search our weather history database for the weather conditions in past years. The results will help you decide how hot, cold, wet, or windy it might be!

Date:

Astronomy

Apr. 06, 2013 Rise Set
Actual Time 7:20 AM CDT 8:02 PM CDT
Civil Twilight 6:55 AM CDT 8:27 PM CDT
Nautical Twilight 6:26 AM CDT 8:56 PM CDT
Astronomical Twilight 5:56 AM CDT 9:26 PM CDT
Moon 4:52 AM CDT (4/6) 4:43 PM CDT (4/6)
Length of Visible Light 13h 31m
Length of Day
12h 42m
Waning Crescent, 15% of the Moon is Illuminated
Apr 6
Waning Crescent
Apr 10
New
Apr 18
First Quarter
Apr 25
Full
May 2
Last Quarter

Hourly Weather History & Observations

Time (CDT) Temp. Dew Point Humidity Pressure Visibility Wind Dir Wind Speed Gust Speed Precip Events Conditions
12:52 AM 60.1 °F 45.0 °F 57% 29.88 in 10.0 mi South 15.0 mph 25.3 mph N/A   Clear
1:52 AM 60.1 °F 45.0 °F 57% 29.88 in 10.0 mi South 17.3 mph 23.0 mph N/A   Clear
2:52 AM 60.1 °F 43.0 °F 53% 29.84 in 10.0 mi South 20.7 mph 28.8 mph N/A   Clear
3:52 AM 59.0 °F 44.1 °F 58% 29.83 in 10.0 mi South 20.7 mph 31.1 mph N/A   Clear
4:52 AM 57.9 °F 44.1 °F 60% 29.81 in 10.0 mi South 21.9 mph 29.9 mph N/A   Clear
5:52 AM 57.9 °F 43.0 °F 58% 29.80 in 10.0 mi South 25.3 mph 35.7 mph N/A   Clear
7:52 AM 55.9 °F 44.1 °F 64% 29.82 in 10.0 mi South 18.4 mph 26.5 mph N/A   Clear
8:52 AM 60.1 °F 45.0 °F 57% 29.82 in 10.0 mi SSW 25.3 mph 41.4 mph N/A   Clear
9:52 AM 63.0 °F 45.0 °F 52% 29.83 in 10.0 mi SSW 28.8 mph 36.8 mph N/A   Clear
10:52 AM 66.9 °F 44.1 °F 44% 29.83 in 10.0 mi SSW 24.2 mph 34.5 mph N/A   Clear
11:52 AM 71.1 °F 44.1 °F 38% 29.83 in 10.0 mi South 23.0 mph 29.9 mph N/A   Clear
12:52 PM 75.9 °F 45.0 °F 33% 29.82 in 10.0 mi South 18.4 mph 26.5 mph N/A   Clear
1:52 PM 80.1 °F 46.0 °F 30% 29.80 in 10.0 mi SSW 18.4 mph 24.2 mph N/A   Clear
2:52 PM 81.0 °F 46.0 °F 29% 29.77 in 10.0 mi South 15.0 mph 18.4 mph N/A   Clear
3:52 PM 82.9 °F 45.0 °F 26% 29.74 in 10.0 mi South 18.4 mph 21.9 mph N/A   Clear
4:52 PM 84.0 °F 45.0 °F 25% 29.72 in 10.0 mi SSW 13.8 mph - N/A   Clear
5:52 PM 82.9 °F 42.1 °F 24% 29.71 in 10.0 mi SSW 10.4 mph - N/A   Clear
6:52 PM 82.0 °F 46.0 °F 28% 29.71 in 10.0 mi South 13.8 mph - N/A   Clear
7:52 PM 80.1 °F 48.0 °F 32% 29.72 in 10.0 mi South 11.5 mph - N/A   Clear
8:52 PM 73.9 °F 51.1 °F 45% 29.73 in 10.0 mi SSE 10.4 mph - N/A   Clear
9:52 PM 72.0 °F 53.1 °F 51% 29.75 in 10.0 mi SSE 10.4 mph - N/A   Clear
10:52 PM 70.0 °F 54.0 °F 57% 29.76 in 10.0 mi SSE 13.8 mph - N/A   Clear
11:52 PM 69.1 °F 55.0 °F 61% 29.76 in 10.0 mi SSE 16.1 mph 23.0 mph N/A   Clear